Jay, Oklahoma
Current Conditions -  °F | °C
As of 6:55 PM on Saturday 22 Nov 2014 (Local Time) from KGMJ Reporting Station
Clear Clear  
Wind Chill: 55°   Ceiling: Unl
Heat Index: 55°   Visibility: 10mi
Dew Point: 55°   Wind: 9mph
Humidity: 100%   Direction: 160°SSE
Pressure: 29.86"   Gusts: NA
Location:  36.42°N, 94.8°W
Report Text: KGMJ 230055Z AUTO 16008KT 10SM CLR 13/13 A2986 RMK AO2
Loading
Personal Weather Stations






























Interactive Weather Map New forecast layout! Learn more

10-Day Weather Forecast

Advertisements
Track Severe Weather on mobile